TimeEDT,TemperatureF,Dew PointF,Humidity,Sea Level PressureIn,VisibilityMPH,Wind Direction,Wind SpeedMPH,Gust SpeedMPH,PrecipitationIn,Events,Conditions,WindDirDegrees,DateUTC
12:58 AM,68.9,68.2,98,29.98,10.0,Calm,Calm,-,N/A,,Mostly Cloudy,0,2013-09-08 04:58:00
1:58 AM,70.3,68.5,94,29.99,10.0,Calm,Calm,-,N/A,,Overcast,0,2013-09-08 05:58:00
2:58 AM,69.6,67.8,94,29.97,10.0,Calm,Calm,-,N/A,,Mostly Cloudy,0,2013-09-08 06:58:00
3:58 AM,69.6,67.8,94,29.97,10.0,Calm,Calm,-,N/A,,Mostly Cloudy,0,2013-09-08 07:58:00
4:30 AM,69.8,68.0,94,29.97,10.0,Calm,Calm,-,N/A,Rain,Light Rain,0,2013-09-08 08:30:00
4:45 AM,69.8,68.0,94,29.97,10.0,Calm,Calm,-,N/A,,Partly Cloudy,0,2013-09-08 08:45:00
4:58 AM,69.4,68.4,96,29.96,10.0,Calm,Calm,-,0.00,,Clear,0,2013-09-08 08:58:00
5:58 AM,69.1,68.4,98,29.97,9.0,Calm,Calm,-,N/A,,Mostly Cloudy,0,2013-09-08 09:58:00
6:58 AM,68.9,68.7,99,29.97,10.0,Calm,Calm,-,N/A,,Mostly Cloudy,0,2013-09-08 10:58:00
7:01 AM,68.0,68.0,100,29.98,10.0,Calm,Calm,-,N/A,Rain,Light Rain,0,2013-09-08 11:01:00
7:12 AM,69.8,68.0,94,29.97,10.0,Calm,Calm,-,N/A,,Mostly Cloudy,0,2013-09-08 11:12:00
7:58 AM,70.2,68.5,95,29.99,10.0,Calm,Calm,-,N/A,,Mostly Cloudy,0,2013-09-08 11:58:00
8:58 AM,71.2,69.3,93,29.99,10.0,Calm,Calm,-,N/A,,Mostly Cloudy,0,2013-09-08 12:58:00
9:58 AM,74.3,70.2,87,29.99,10.0,SSW,2.3,-,N/A,,Scattered Clouds,210,2013-09-08 13:58:00
10:58 AM,79.3,70.9,75,30.01,10.0,Calm,Calm,-,N/A,,Scattered Clouds,0,2013-09-08 14:58:00
11:58 AM,84.0,69.1,61,30.00,10.0,North,2.3,-,N/A,,Mostly Cloudy,10,2013-09-08 15:58:00
12:58 PM,85.5,68.0,56,29.99,10.0,Variable,2.3,-,N/A,,Mostly Cloudy,0,2013-09-08 16:58:00
1:58 PM,86.2,69.4,57,29.97,10.0,Variable,1.2,-,N/A,,Mostly Cloudy,0,2013-09-08 17:58:00
2:58 PM,86.0,71.6,62,29.97,10.0,West,10.4,-,N/A,,Mostly Cloudy,260,2013-09-08 18:58:00
3:55 PM,84.2,64.4,51,29.96,10.0,West,11.5,-,N/A,,Mostly Cloudy,270,2013-09-08 19:55:00
4:55 PM,80.6,66.2,61,29.95,10.0,West,5.8,-,N/A,,Overcast,260,2013-09-08 20:55:00
5:55 PM,78.8,68.0,69,29.95,10.0,WSW,5.8,-,N/A,,Overcast,250,2013-09-08 21:55:00
6:55 PM,77.0,69.8,78,29.94,7.0,Calm,Calm,-,N/A,,Overcast,0,2013-09-08 22:55:00
7:55 PM,75.2,68.0,78,29.94,10.0,Calm,Calm,-,N/A,,Mostly Cloudy,0,2013-09-08 23:55:00
8:55 PM,71.6,68.0,88,29.96,10.0,Calm,Calm,-,N/A,,Mostly Cloudy,0,2013-09-09 00:55:00
9:58 PM,70.0,68.4,95,29.99,10.0,Calm,Calm,-,N/A,,Clear,0,2013-09-09 01:58:00
10:58 PM,69.4,68.2,96,29.98,10.0,Calm,Calm,-,N/A,,Scattered Clouds,0,2013-09-09 02:58:00
11:58 PM,69.1,68.2,97,29.99,10.0,Calm,Calm,-,N/A,,Clear,0,2013-09-09 03:58:00